Time,TemperatureF,DewpointF,PressureIn,WindDirection,WindDirectionDegrees,WindSpeedMPH,WindSpeedGustMPH,Humidity,HourlyPrecipIn,Conditions,Clouds,dailyrainin,SoftwareType,DateUTC
2013-02-12 00:01:00,70.0,65.0,30.03,SSE,153,1.0,10.0,85,0.00,,,0.00,,2013-02-12 05:01:00,
2013-02-12 00:11:00,70.0,66.0,30.03,SW,214,2.0,10.0,86,0.00,,,0.00,,2013-02-12 05:11:00,
2013-02-12 00:21:00,70.0,66.0,30.03,SW,214,2.0,10.0,86,0.00,,,0.00,,2013-02-12 05:21:00,
2013-02-12 00:32:00,70.0,66.0,30.03,SSE,166,4.0,10.0,87,0.00,,,0.00,,2013-02-12 05:32:00,
2013-02-12 00:42:00,70.0,66.0,30.03,SSE,166,4.0,10.0,87,0.00,,,0.00,,2013-02-12 05:42:00,
2013-02-12 00:52:00,70.0,66.0,30.02,South,180,8.0,10.0,87,0.00,,,0.00,,2013-02-12 05:52:00,
2013-02-12 01:02:00,70.0,66.0,30.02,South,186,3.0,10.0,87,0.00,,,0.00,,2013-02-12 06:02:00,
2013-02-12 01:12:00,70.0,66.0,30.02,SSW,195,2.0,10.0,87,0.00,,,0.00,,2013-02-12 06:12:00,
2013-02-12 01:22:00,70.0,66.0,30.02,SSW,195,2.0,10.0,87,0.00,,,0.00,,2013-02-12 06:22:00,
2013-02-12 01:32:00,70.0,66.0,30.02,South,187,3.0,8.0,87,0.00,,,0.00,,2013-02-12 06:32:00,
2013-02-12 01:42:00,70.0,66.0,30.01,South,171,4.0,10.0,87,0.00,,,0.00,,2013-02-12 06:42:00,
2013-02-12 01:51:00,70.0,66.0,30.01,South,171,4.0,10.0,87,0.00,,,0.00,,2013-02-12 06:51:00,
2013-02-12 02:02:00,69.0,65.0,30.01,SSW,196,3.0,10.0,88,0.00,,,0.00,,2013-02-12 07:02:00,
2013-02-12 02:11:00,69.0,66.0,30.01,SSW,208,3.0,10.0,89,0.00,,,0.00,,2013-02-12 07:11:00,
2013-02-12 02:21:00,69.0,66.0,30.01,SSW,208,3.0,10.0,89,0.00,,,0.00,,2013-02-12 07:21:00,
2013-02-12 02:32:00,69.0,66.0,30.01,South,186,2.0,14.0,89,0.00,,,0.00,,2013-02-12 07:32:00,
2013-02-12 02:42:00,69.0,66.0,30.01,South,186,2.0,14.0,89,0.00,,,0.00,,2013-02-12 07:42:00,
2013-02-12 02:51:00,69.0,66.0,30.00,South,175,0.0,14.0,90,0.00,,,0.00,,2013-02-12 07:51:00,
2013-02-12 03:01:00,69.0,66.0,30.00,South,171,6.0,12.0,90,0.00,,,0.00,,2013-02-12 08:01:00,
2013-02-12 03:11:00,69.0,66.0,30.00,South,171,6.0,12.0,90,0.00,,,0.00,,2013-02-12 08:11:00,
2013-02-12 03:21:00,69.0,66.0,29.99,SSW,194,5.0,12.0,90,0.00,,,0.00,,2013-02-12 08:21:00,
2013-02-12 03:32:00,68.0,65.0,29.99,SW,225,7.0,11.0,90,0.00,,,0.00,,2013-02-12 08:32:00,
2013-02-12 03:42:00,68.0,65.0,29.99,SW,225,7.0,11.0,90,0.00,,,0.00,,2013-02-12 08:42:00,
2013-02-12 03:52:00,68.0,65.0,29.99,SW,227,5.0,11.0,91,0.00,,,0.00,,2013-02-12 08:52:00,
2013-02-12 04:02:00,68.0,66.0,29.99,SW,223,4.0,11.0,92,0.00,,,0.00,,2013-02-12 09:02:00,
2013-02-12 04:11:00,68.0,66.0,29.99,SW,226,5.0,11.0,92,0.00,,,0.00,,2013-02-12 09:11:00,
2013-02-12 04:21:00,68.0,66.0,29.99,SW,226,5.0,11.0,92,0.00,,,0.00,,2013-02-12 09:21:00,
2013-02-12 04:32:00,68.0,66.0,29.99,SSW,199,5.0,10.0,92,0.00,,,0.00,,2013-02-12 09:32:00,
2013-02-12 04:42:00,68.0,66.0,29.99,SSW,193,4.0,10.0,92,0.00,,,0.00,,2013-02-12 09:42:00,
2013-02-12 04:51:00,68.0,66.0,29.99,SSW,193,4.0,10.0,92,0.00,,,0.00,,2013-02-12 09:51:00,
2013-02-12 05:01:00,68.0,66.0,29.99,South,186,5.0,9.0,92,0.00,,,0.00,,2013-02-12 10:01:00,
2013-02-12 05:11:00,68.0,66.0,29.99,SSW,196,4.0,9.0,92,0.00,,,0.00,,2013-02-12 10:11:00,
2013-02-12 05:21:00,68.0,66.0,29.99,SSW,196,4.0,9.0,92,0.00,,,0.00,,2013-02-12 10:21:00,
2013-02-12 05:32:00,68.0,66.0,29.99,SSW,209,3.0,6.0,93,0.00,,,0.00,,2013-02-12 10:32:00,
2013-02-12 05:43:00,68.0,66.0,29.99,SSW,209,3.0,6.0,93,0.00,,,0.00,,2013-02-12 10:43:00,
2013-02-12 05:51:00,68.0,66.0,29.99,SSW,207,3.0,7.0,93,0.00,,,0.00,,2013-02-12 10:51:00,
2013-02-12 06:02:00,67.0,65.0,29.99,SW,219,3.0,8.0,94,0.00,,,0.00,,2013-02-12 11:02:00,
2013-02-12 06:11:00,67.0,65.0,29.99,SW,219,0.0,8.0,94,0.00,,,0.00,,2013-02-12 11:11:00,
2013-02-12 06:22:00,67.0,65.0,29.99,SW,219,0.0,8.0,94,0.00,,,0.00,,2013-02-12 11:22:00,
2013-02-12 06:32:00,67.0,65.0,29.99,SW,219,0.0,0.0,94,0.00,,,0.00,,2013-02-12 11:32:00,
2013-02-12 06:42:00,67.0,65.0,29.99,SW,219,0.0,0.0,94,0.00,,,0.00,,2013-02-12 11:42:00,
2013-02-12 06:52:00,67.0,65.0,30.00,SW,219,0.0,0.0,94,0.00,,,0.00,,2013-02-12 11:52:00,
2013-02-12 07:02:00,67.0,66.0,30.00,SW,219,0.0,2.0,95,0.00,,,0.00,,2013-02-12 12:02:00,
2013-02-12 07:11:00,67.0,66.0,30.01,SW,219,0.0,2.0,95,0.00,,,0.00,,2013-02-12 12:11:00,
2013-02-12 07:21:00,67.0,66.0,30.01,SW,219,0.0,2.0,95,0.00,,,0.00,,2013-02-12 12:21:00,
2013-02-12 07:32:00,67.0,66.0,30.01,SW,219,0.0,0.0,95,0.00,,,0.00,,2013-02-12 12:32:00,
2013-02-12 07:42:00,67.0,66.0,30.01,SW,219,0.0,3.0,95,0.00,,,0.00,,2013-02-12 12:42:00,
2013-02-12 07:52:00,67.0,66.0,30.01,SW,219,0.0,3.0,95,0.00,,,0.00,,2013-02-12 12:52:00,
2013-02-12 08:02:00,67.0,66.0,30.02,SW,219,0.0,4.0,96,0.00,,,0.00,,2013-02-12 13:02:00,
2013-02-12 08:11:00,67.0,66.0,30.02,SW,219,0.0,4.0,96,0.00,,,0.00,,2013-02-12 13:11:00,
2013-02-12 08:22:00,67.0,66.0,30.02,SW,219,0.0,4.0,96,0.00,,,0.00,,2013-02-12 13:22:00,
2013-02-12 08:32:00,68.0,67.0,30.02,SW,219,0.0,3.0,96,0.00,,,0.00,,2013-02-12 13:32:00,
2013-02-12 08:42:00,68.0,67.0,30.02,SW,219,0.0,3.0,96,0.00,,,0.00,,2013-02-12 13:42:00,
2013-02-12 08:52:00,68.0,67.0,30.02,SW,219,4.0,5.0,96,0.00,,,0.00,,2013-02-12 13:52:00,
2013-02-12 09:01:00,68.0,67.0,30.02,SSW,203,6.0,6.0,95,0.00,,,0.00,,2013-02-12 14:01:00,
2013-02-12 09:12:00,68.0,67.0,30.02,SSW,203,6.0,6.0,95,0.00,,,0.00,,2013-02-12 14:12:00,
2013-02-12 09:21:00,69.0,67.0,30.03,SSW,198,6.0,9.0,94,0.00,,,0.00,,2013-02-12 14:21:00,
2013-02-12 09:32:00,70.0,68.0,30.03,SSW,209,3.0,9.0,92,0.00,,,0.00,,2013-02-12 14:32:00,
2013-02-12 09:42:00,70.0,68.0,30.03,SSW,209,3.0,9.0,92,0.00,,,0.00,,2013-02-12 14:42:00,
2013-02-12 09:52:00,70.0,67.0,30.03,SW,219,3.0,9.0,91,0.00,,,0.00,,2013-02-12 14:52:00,
2013-02-12 10:02:00,71.0,68.0,30.03,SSW,201,3.0,8.0,90,0.00,,,0.00,,2013-02-12 15:02:00,
2013-02-12 10:11:00,71.0,68.0,30.03,SSW,198,4.0,9.0,89,0.00,,,0.00,,2013-02-12 15:11:00,
2013-02-12 10:21:00,71.0,68.0,30.03,SSW,198,4.0,9.0,89,0.00,,,0.00,,2013-02-12 15:21:00,
2013-02-12 10:32:00,73.0,69.0,30.04,SW,226,12.0,12.0,87,0.00,,,0.00,,2013-02-12 15:32:00,
2013-02-12 10:42:00,73.0,69.0,30.04,SW,226,12.0,12.0,87,0.00,,,0.00,,2013-02-12 15:42:00,
2013-02-12 10:52:00,74.0,70.0,30.04,SW,217,4.0,12.0,86,0.00,,,0.00,,2013-02-12 15:52:00,
2013-02-12 11:01:00,74.0,69.0,30.04,SSW,210,12.0,12.0,84,0.00,,,0.00,,2013-02-12 16:01:00,
2013-02-12 11:11:00,74.0,69.0,30.04,SSW,210,12.0,12.0,84,0.00,,,0.00,,2013-02-12 16:11:00,
2013-02-12 11:22:00,75.0,69.0,30.03,South,174,5.0,13.0,83,0.00,,,0.00,,2013-02-12 16:22:00,
2013-02-12 11:32:00,75.0,69.0,30.03,South,188,10.0,11.0,81,0.00,,,0.00,,2013-02-12 16:32:00,
2013-02-12 11:42:00,75.0,69.0,30.03,South,188,10.0,11.0,81,0.00,,,0.00,,2013-02-12 16:42:00,
2013-02-12 11:51:00,76.0,70.0,30.02,SSW,199,3.0,11.0,81,0.00,,,0.00,,2013-02-12 16:51:00,
2013-02-12 12:01:00,77.0,70.0,30.02,SSW,206,3.0,7.0,80,0.00,,,0.00,,2013-02-12 17:01:00,
2013-02-12 12:12:00,77.0,69.0,30.01,SSW,203,10.0,10.0,76,0.00,,,0.00,,2013-02-12 17:12:00,
2013-02-12 12:21:00,77.0,69.0,30.01,SSW,203,10.0,10.0,76,0.00,,,0.00,,2013-02-12 17:21:00,
2013-02-12 12:32:00,78.0,68.0,30.00,SSW,198,3.0,11.0,72,0.00,,,0.00,,2013-02-12 17:32:00,
2013-02-12 12:42:00,78.0,68.0,30.00,SSW,198,3.0,11.0,72,0.00,,,0.00,,2013-02-12 17:42:00,
2013-02-12 12:52:00,78.0,68.0,29.99,SSW,205,1.0,11.0,71,0.00,,,0.00,,2013-02-12 17:52:00,
2013-02-12 13:02:00,80.0,68.0,29.99,South,171,0.0,10.0,68,0.00,,,0.00,,2013-02-12 18:02:00,
2013-02-12 13:11:00,80.0,68.0,29.98,SSW,198,0.0,10.0,67,0.00,,,0.00,,2013-02-12 18:11:00,
2013-02-12 13:23:00,80.0,68.0,29.98,SSW,198,0.0,10.0,67,0.00,,,0.00,,2013-02-12 18:23:00,
2013-02-12 13:32:00,81.0,69.0,29.96,SSW,196,4.0,11.0,66,0.00,,,0.00,,2013-02-12 18:32:00,
2013-02-12 13:41:00,81.0,68.0,29.96,SSW,193,4.0,11.0,65,0.00,,,0.00,,2013-02-12 18:41:00,
2013-02-12 13:51:00,81.0,68.0,29.96,SSW,193,4.0,11.0,65,0.00,,,0.00,,2013-02-12 18:51:00,
2013-02-12 14:02:00,81.0,68.0,29.94,SSW,207,4.0,11.0,64,0.00,,,0.00,,2013-02-12 19:02:00,
2013-02-12 14:11:00,82.0,68.0,29.93,SSW,194,0.0,12.0,62,0.00,,,0.00,,2013-02-12 19:11:00,
2013-02-12 14:21:00,82.0,68.0,29.93,SSW,194,0.0,12.0,62,0.00,,,0.00,,2013-02-12 19:21:00,
2013-02-12 14:32:00,81.0,71.0,29.93,SSE,164,3.0,10.0,72,0.00,,,0.00,,2013-02-12 19:32:00,
2013-02-12 14:41:00,80.0,71.0,29.93,SSE,160,9.0,11.0,74,0.00,,,0.00,,2013-02-12 19:41:00,
2013-02-12 14:51:00,80.0,71.0,29.93,SSE,160,9.0,11.0,74,0.00,,,0.00,,2013-02-12 19:51:00,
2013-02-12 15:01:00,78.0,70.0,29.91,SE,141,6.0,13.0,77,0.00,,,0.00,,2013-02-12 20:01:00,
2013-02-12 15:11:00,78.0,71.0,29.91,SE,138,10.0,14.0,78,0.00,,,0.00,,2013-02-12 20:11:00,
2013-02-12 15:21:00,78.0,71.0,29.91,SE,138,10.0,14.0,78,0.00,,,0.00,,2013-02-12 20:21:00,
2013-02-12 15:32:00,78.0,71.0,29.91,SSE,156,7.0,12.0,80,0.00,,,0.00,,2013-02-12 20:32:00,
2013-02-12 15:41:00,78.0,71.0,29.91,SSE,150,11.0,15.0,80,0.00,,,0.00,,2013-02-12 20:41:00,
2013-02-12 15:52:00,78.0,71.0,29.91,SSE,150,11.0,15.0,80,0.00,,,0.00,,2013-02-12 20:52:00,
2013-02-12 16:02:00,78.0,71.0,29.89,SSE,165,3.0,12.0,80,0.00,,,0.00,,2013-02-12 21:02:00,
2013-02-12 16:11:00,78.0,71.0,29.88,South,170,0.0,14.0,80,0.00,,,0.00,,2013-02-12 21:11:00,
2013-02-12 16:21:00,78.0,71.0,29.88,South,170,0.0,14.0,80,0.00,,,0.00,,2013-02-12 21:21:00,
2013-02-12 16:32:00,77.0,71.0,29.88,South,190,0.0,10.0,81,0.00,,,0.00,,2013-02-12 21:32:00,
2013-02-12 16:42:00,77.0,71.0,29.88,South,183,3.0,10.0,81,0.00,,,0.00,,2013-02-12 21:42:00,
2013-02-12 16:51:00,77.0,71.0,29.88,South,183,3.0,10.0,81,0.00,,,0.00,,2013-02-12 21:51:00,
2013-02-12 17:01:00,77.0,70.0,29.87,SSE,160,4.0,10.0,80,0.00,,,0.00,,2013-02-12 22:01:00,
2013-02-12 17:12:00,76.0,70.0,29.88,South,170,3.0,11.0,82,0.00,,,0.00,,2013-02-12 22:12:00,
2013-02-12 17:21:00,76.0,70.0,29.88,South,170,3.0,11.0,82,0.00,,,0.00,,2013-02-12 22:21:00,
2013-02-12 17:32:00,75.0,71.0,29.88,SSE,165,2.0,12.0,86,0.00,,,0.00,,2013-02-12 22:32:00,
2013-02-12 17:42:00,75.0,71.0,29.88,SSE,165,2.0,12.0,86,0.00,,,0.00,,2013-02-12 22:42:00,
2013-02-12 17:51:00,75.0,71.0,29.88,SSE,165,2.0,12.0,86,0.00,,,0.00,,2013-02-12 22:51:00,
2013-02-12 18:01:00,74.0,70.0,29.88,SSE,161,6.0,10.0,88,0.00,,,0.00,,2013-02-12 23:01:00,
2013-02-12 18:11:00,74.0,71.0,29.88,South,185,8.0,13.0,89,0.00,,,0.00,,2013-02-12 23:11:00,
2013-02-12 18:21:00,74.0,71.0,29.88,South,185,8.0,13.0,89,0.00,,,0.00,,2013-02-12 23:21:00,
2013-02-12 18:32:00,74.0,71.0,29.88,South,179,4.0,12.0,89,0.00,,,0.00,,2013-02-12 23:32:00,
2013-02-12 18:42:00,74.0,71.0,29.88,South,179,4.0,12.0,89,0.00,,,0.00,,2013-02-12 23:42:00,
2013-02-12 18:52:00,74.0,71.0,29.88,SSE,153,3.0,12.0,89,0.00,,,0.00,,2013-02-12 23:52:00,
2013-02-12 19:02:00,73.0,70.0,29.87,South,183,4.0,11.0,90,0.00,,,0.00,,2013-02-13 00:02:00,
2013-02-12 19:11:00,73.0,70.0,29.87,South,183,4.0,11.0,90,0.00,,,0.00,,2013-02-13 00:11:00,
2013-02-12 19:21:00,73.0,70.0,29.87,South,183,4.0,11.0,90,0.00,,,0.00,,2013-02-13 00:21:00,
2013-02-12 19:32:00,73.0,70.0,29.88,SSE,161,3.0,10.0,91,0.00,,,0.00,,2013-02-13 00:32:00,
2013-02-12 19:42:00,73.0,70.0,29.88,SSE,161,3.0,10.0,91,0.00,,,0.00,,2013-02-13 00:42:00,
2013-02-12 19:52:00,73.0,70.0,29.88,SE,146,3.0,11.0,91,0.00,,,0.00,,2013-02-13 00:52:00,
2013-02-12 20:01:00,73.0,71.0,29.88,South,186,3.0,12.0,92,0.00,,,0.00,,2013-02-13 01:01:00,
2013-02-12 20:11:00,73.0,71.0,29.88,South,186,3.0,12.0,92,0.00,,,0.00,,2013-02-13 01:11:00,
2013-02-12 20:21:00,73.0,71.0,29.88,SE,146,10.0,12.0,92,0.00,,,0.00,,2013-02-13 01:21:00,
2013-02-12 20:32:00,73.0,71.0,29.88,SSW,200,3.0,10.0,92,0.00,,,0.00,,2013-02-13 01:32:00,
2013-02-12 20:42:00,73.0,71.0,29.88,South,177,6.0,10.0,92,0.00,,,0.00,,2013-02-13 01:42:00,
2013-02-12 20:51:00,73.0,71.0,29.88,South,177,6.0,10.0,92,0.00,,,0.00,,2013-02-13 01:51:00,
2013-02-12 21:01:00,73.0,71.0,29.88,SSW,205,6.0,12.0,92,0.00,,,0.00,,2013-02-13 02:01:00,
2013-02-12 21:11:00,73.0,71.0,29.88,South,179,3.0,12.0,92,0.00,,,0.00,,2013-02-13 02:11:00,
2013-02-12 21:22:00,73.0,71.0,29.88,South,179,3.0,12.0,92,0.00,,,0.00,,2013-02-13 02:22:00,
2013-02-12 21:32:00,73.0,71.0,29.88,SSE,168,4.0,12.0,93,0.00,,,0.00,,2013-02-13 02:32:00,
2013-02-12 21:42:00,73.0,71.0,29.88,SSE,168,4.0,12.0,93,0.00,,,0.00,,2013-02-13 02:42:00,
2013-02-12 21:52:00,73.0,71.0,29.88,SE,140,3.0,13.0,92,0.00,,,0.00,,2013-02-13 02:52:00,
2013-02-12 22:01:00,74.0,72.0,29.89,South,190,0.0,9.0,92,0.00,,,0.00,,2013-02-13 03:01:00,
2013-02-12 22:11:00,73.0,70.0,29.89,South,169,0.0,9.0,91,0.00,,,0.00,,2013-02-13 03:11:00,
2013-02-12 22:21:00,73.0,70.0,29.89,South,169,0.0,9.0,91,0.00,,,0.00,,2013-02-13 03:21:00,
2013-02-12 22:32:00,73.0,70.0,29.89,SSW,209,0.0,5.0,91,0.00,,,0.00,,2013-02-13 03:32:00,
2013-02-12 22:42:00,73.0,70.0,29.89,SSW,209,0.0,5.0,91,0.00,,,0.00,,2013-02-13 03:42:00,
2013-02-12 22:51:00,73.0,70.0,29.90,South,191,0.0,5.0,91,0.00,,,0.00,,2013-02-13 03:51:00,
2013-02-12 23:01:00,72.0,69.0,29.90,SSW,209,3.0,6.0,91,0.00,,,0.00,,2013-02-13 04:01:00,
2013-02-12 23:11:00,72.0,69.0,29.90,SSW,209,3.0,6.0,91,0.00,,,0.00,,2013-02-13 04:11:00,
2013-02-12 23:21:00,72.0,69.0,29.89,South,189,6.0,10.0,90,0.00,,,0.00,,2013-02-13 04:21:00,
2013-02-12 23:32:00,73.0,69.0,29.90,SW,214,12.0,15.0,87,0.00,,,0.00,,2013-02-13 04:32:00,
2013-02-12 23:41:00,73.0,69.0,29.90,SSW,196,6.0,15.0,87,0.00,,,0.00,,2013-02-13 04:41:00,
2013-02-12 23:51:00,73.0,69.0,29.90,SSW,196,6.0,15.0,87,0.00,,,0.00,,2013-02-13 04:51:00,